ATLAS AGENA D R/B, 4511

Orbit data source: Space-Track

ATLAS AGENA D R/B, 4511 is space debris in GEO originally from a launch on Fri, 19 Jun 1970 UTC launched from the Air Force Eastern Test Range (AFETR). Debris objects in space refer to the collection of defunct objects orbiting the Earth. Examples of debris include non-operational satellites, rocket bodies, and fragments generated from explosions, collisions, or faulty payload assembly.

Loading next visibility...
ATLAS AGENA D R/B details
Identifier
4511, 1970-046B
Orbit
GEO
Last TLE update2 days ago
Origin
Flag of USSAMSO (US)
ManufacturerLMSC
MissionSpacecraft
Bus & MotorAGENA D, Unknown motor
Mass600 kg wet, 600 kg dry
Launch date (UTC)
1970-06-19 (55 years ago)
Launch vehicleUnknown
Launch site
Air Force Eastern Test Range (AFETR)
Object type
Payload
Rocket body
Debris
Shape & HBRCyl, 6.3 m
Radar Cross Section8.306 m²

Expand to show TLE details & history

TLE from 2 days ago
0 ATLAS AGENA D R/B
1  4511U 70046B   25045.78877875 -.00000278  00000-0  00000+0 0  9998
2  4511   0.4376  95.4363 0030733 287.3575 337.3070  1.00432033 20647
Epoch: 2025-02-14T18:55Z
Definitive object data (Epoch: 2025-02-14T18:55:50.484Z)
Latitude-0.45717°
Longitude-69.00611°
Altitude35,621.84 km
Speed3.085 km/s
True Right ascension23h 59m 59s
True Declination0° 27' 24"
Sunlit
Object was in daylight at TLE epoch
Visualization TLE readout
Latitude0.22486°
Longitude178.61136°
Altitude35,832.476 km
Speed3.07 km/s
Apparent Right ascension16h 48m 03s
Apparent Declination-5° 48' 21"
Sunlit
Object is in daylight
Visualization observer readout
Local Sidereal Time14:02:37
Azimuth130.261° SE
Elevation30.519°
Doppler factor1
Orbital elements
Apogee altitude35,872.253 km
Perigee altitude35,613.352 km
Semi-major axis42,120.94 km
Eccentricity0.0030733
Inclination0.4376°
RAAN95.4363°
Arg. of periapsis287.3575°
True anomaly337.17065°
Mean anomaly337.307°
Eccentric anomaly337.23887°
Mean motion0.25107 °/min
BSTARUnknown
Orbital period1433.86 mins
Loading historical data...
4511 neighbors
Authenticating...
Loading maneuver chart data...
Loading historical data...
Loading historical data...
Loading historical data...
Loading historical data...
Loading historical data...
Loading historical data...
Loading historical data...
Other satellites on launch #46 in the year 1970 (1970-06-19 UTC)

ATLAS AGENA D R/B Visibility forecast

Observer location: undefined°, undefined

Span
Click to sort rows by Start time (UTC) header in descending order
Start Az.
Max El. time (UTC)
Max El. Az.
Max El.
End time (UTC)
End Az.
1440 mins2025-02-16 11:16:17.318Z130.275° SE2025-02-16 11:16:17.318Z130.275° SE26.915°2025-02-17 11:16:17.318Z129.704° SE
|